ELECTRON R/B

Satellite information

Favourite Embed

Satellite Type and Status

ROCKET BODYIN ORBIT

Key statistics

Satellite ELECTRON R/B at a glance.

Uptime

792

Days in orbit

Revolutions

≈ 15.6

Per day

Orbit

LEO

Low Earth Orbit

Inclination

35.5

Latest

Satellite identification and parameters

Extended collection of information and parameters for ELECTRON R/B.

Object identification

Identified? True

Debris? False

Object name: ELECTRON R/B

International designator: 2023-062D

Object number (NORAD): 56445

Object ID (CCSDS): 56445

Country: UNITED STATES OF AMERICA (US)

Current information (Y/N): Y

RCS size: LARGE

Orbital parameters

Period: 92.468 minutes

Inclination: 35.4701 deg

SMA: 6773.649 km

Apoapsis: 396.838 km

Periapsis: 394.189 km

RAAN: 261.2974 deg

Eccentricy: 0.0001955

Argument of periapsis: 120.5164 deg

Mean anomaly: 239.5763 deg

Mean motion: 15.57287372 rev/day

Mean motion (dot): 0.00073944 rev/day2

B* drag term: 0.00097266 1/REarth

Two-line elements (TLE)

Creation date: July 6, 2025, 6:05 p.m.

Reference frame: TEME

Reference center: EARTH

Epoch: July 6, 2025, 11:59 a.m. UTC

TLE line 0: 0 ELECTRON R/B

TLE line 1: 1 56445U 23062D 25187.49994572 .00073944 00000-0 97266-3 0 9999

TLE line 2: 2 56445 35.4701 261.2974 0001955 120.5164 239.5763 15.57287372120416

Live tracking on map

Real-time ground track for satellite ELECTRON R/B.

In-orbit conjunctions

A list of the most updated potential collisions computed for object ELECTRON R/B.

Target Orbit TCA Probability of collision Miss distance Type
FENGYUN 1C DEB SSO 2024-09-20 09:33:32 0.0001185923 579.0 (m) DEBRIS

Associated space launch

Third and fourth operational (TROPICS-04 & TROPICS-05) satellites for NASA's Time-Resolved Observations of Precipitation Structure and Storm Intensity with a Constellation of SmallSats (TROPICS) mission. The CubeSats are designed to provide rapid-refresh microwave measurements that can be used to determine temperature, pressure, and humidity inside hurricanes as they form and evolve.

ELECTRON R/B was lifted into orbit during the mission ‘Electron | Rocket Like A Hurricane (TROPICS-2)’, on board a Electron space rocket.

The launch took place on May 8, 2023, 1 a.m. from Rocket Lab Launch Complex 1B.

For more information about the launch, click the button.

Launch to space Electron | Rocket Like A Hurricane (TROPICS-2)
Electron | Rocket Like A Hurricane (TROPICS-2)

Agency: National Aeronautics and Space Administration

Status: Launch Successful

Launch date: May 8, 2023, 1 a.m. UTC

Rocket: Electron

Launch pad: Rocket Lab Launch Complex 1B

Location: Rocket Lab Launch Complex 1, Mahia Peninsula, New Zealand

...

Latest news about this satellite

News about space launch
NASA’s TROPICS Mission: Offering Detailed Images and Analysis of Tropical Cyclones

Introduction Tropical cyclones represent a danger to life, property, and the economies of communities. Researchers who study tropical cyclones have focused on remote observations using space-based platforms to image these storms, inform forecasts, better ...

News about space launch
NASA TROPICS Constellation Fully Operational & Ready For Hurricane Season

NASA's TROPICS (Time-Resolved Observations of Precipitation structure and storm Intensity with a Constellation of Smallsats) are now fully operational, and are ready to bolster monitoring efforts for the ongoing Atlantic hurricane season.

News about space launch
TROPICS cubesat constellation ready for hurricane season

A quartet of cubesats launched in May to monitor the development of tropical storm systems is working just in time to support monitoring of the Atlantic hurricane season.


Newsletter sign-up

Weekly statistics, charts and insights to help you stay on top of the space industry.